Tracking 25701 objects as of 4-Jul-2022
HD Live streaming from Space Station
objects crossing your sky now

FENGYUN 1C DEB

Track FENGYUN 1C DEB now!
10-day predictions


NORAD ID: 32317
Int'l Code: 1999-025CXJ
Perigee: 691.3 km
Apogee: 892.7 km
Inclination: 98.0 °
Period: 100.6 minutes
Semi major axis: 7162 km
RCS: 0.0099 m2 (small)
Launch date: May 10, 1999
Source: People's Republic of China (PRC)
Launch site: Taiyaun Space Center, China (TSC)

Note: This is SATELLITE DEBRIS
aabbcc
Your satellite tracking list
Your tracking list is empty




NASA's NSSDC Master Catalog

Two Line Element Set (TLE):
1 32317U 99025CXJ 22176.94447948  .00002596  00000-0  88031-3 0  9993
2 32317  98.0353  74.8552 0140580 226.5384 132.4039 14.32061821456707
Source of the keplerian elements: AFSPC